491  
ASUS45 KSLC 211910  
RWRUT  
 
UTAH REGIONAL WEATHER ROUNDUP  
NATIONAL WEATHER SERVICE SALT LAKE CITY UT  
100 PM MDT SAT SEP 21 2019  
 
UTZ001>011-023>025-212000-  
 
NORTHERN UTAH  
 
CITY SKY/WX TMP DP RH WIND PRES REMARKS
 
BRIGHAM CITY MOSUNNY 59 41 52 S5 30.18F  
HILL AFB PTSUNNY 56 38 50 SW5 30.18S  
LOGAN CLOUDY 56 41 57 NW5 30.17F  
OGDEN CLOUDY 59 39 47 MISG 30.17F  
SALT LAKE CITY MOSUNNY 62 39 42 NW9 30.16F  
TOOELE VALLEY SUNNY 61 39 44 N8 30.18S  
WENDOVER MOSUNNY 62 33 33 E8 30.17F  
HEBER CITY N/A 59 32 36 W3 30.17S  
WEST JORDAN CLOUDY 56 40 55 CALM 30.18S  
 

 
 
UTZ011>015-024>027-212000-  
 
CENTRAL/NORTHEAST UTAH  
 
CITY SKY/WX TMP DP RH WIND PRES REMARKS
 
PROVO AIRPORT MOSUNNY 57 39 51 SW7 30.19S  
MOAB/CANYONLAN SUNNY 68 23 18 N7 30.07F  
DELTA SUNNY 61 30 31 N7 30.17S  
PRICE SUNNY 63 24 22 VRB6 30.12F  
RICHFIELD SUNNY 61 34 36 NE8 30.15F  
ROOSEVELT SUNNY 59 28 31 S3 30.16F  
VERNAL MOSUNNY 59 26 28 E6 30.13F  
 

 
 
UTZ013>016-019>022-027-212000-  
 
SOUTHERN UTAH  
 
CITY SKY/WX TMP DP RH WIND PRES REMARKS
 
BRYCE CANYON SUNNY 58 15 18 W9G21 30.21F  
CEDAR CITY SUNNY 64 27 24 VRB6 30.15F  
MILFORD SUNNY 64 30 27 N13G20 30.15F  
ST GEORGE PTCLDY 72 32 23 VRB3 30.05F  
HANKSVILLE SUNNY 68 23 18 CALM 30.10F  
KANAB SUNNY 70 21 16 W1 30.13F  
BLANDING N/A 69 19 15 SW7 30.19F  
 

 
 
REGIONAL REPORTS COLORADO/ARIZONA  
 
CITY SKY/WX TMP DP RH WIND PRES REMARKS
 
CRAIG, CO SUNNY 63 26 24 NW10G20 30.13F  
GRAND JUNCTION SUNNY 68 26 20 SE5 30.08F  
RIFLE, CO SUNNY 64 24 21 VRB3 30.09F  
MONTROSE, CO SUNNY 64 27 24 NW8 30.10F  
CORTEZ, CO SUNNY 70 23 17 SW16G23 30.12F  
COLORADO CITY N/A 73 27 17 CALM 30.13F  
PAGE, AZ SUNNY 72 26 18 VRB3 30.07F  
GRAND CANYON SUNNY 66 15 14 W15G23 30.17F  
KINGMAN, AZ SUNNY 79 20 11 MISG 30.04F  
FLAGSTAFF, AZ SUNNY 66 11 11 SW12G22 30.18F  
 

 
 
REGIONAL REPORTS NEVADA/IDAHO/WYOMING  
 
CITY SKY/WX TMP DP RH WIND PRES REMARKS
 
LAS VEGAS, NV MOSUNNY 79 29 16 VRB5 30.01F  
ELY, NY SUNNY 57 25 29 N10 30.20F  
ELKO, NV SUNNY 59 34 39 CALM 30.20F  
POCATELLO, ID PTSUNNY 56 41 57 SW10 30.18F  
BURLEY, ID MOSUNNY 58 40 51 W9 30.16F  
EVANSTON, WY CLOUDY 48 30 49 W7 30.20F  
ROCK SPRINGS, PTSUNNY 54 30 40 W14G23 30.16F  
KEMMERER, WY MOSUNNY 48 30 49 W12 30.20S  
 

 
 
 
CLICK HERE TO GO TO PREVIOUS BULLETINS.

The Nexlab UT Page Main Text Page